This is the latest recevied weather packets stored in our database for station/object K0APR. If no packets are shown the sender has not sent any weather packets the latest 10 day(s).
| Time | Temp. | Humidity | Pressure | Rain* | Wind** | Luminosity | Snow |
|---|---|---|---|---|---|---|---|
| 1788352549 | 17.22° C | 96% | 1013 hPa | 0 mm | - | 33 W/m² | - |
| 1788352250 | 17.22° C | 96% | 1013 hPa | 0 mm | - | 29 W/m² | - |
| 1788351949 | 16.67° C | 96% | 1013.3 hPa | 0 mm | - | 26 W/m² | - |
| 1788351645 | 16.67° C | 96% | 1013 hPa | 0 mm | - | 20 W/m² | - |
| 1788351345 | 16.67° C | 96% | 1013 hPa | 0 mm | - | 16 W/m² | - |
| 1788351040 | 16.67° C | 96% | 1012.7 hPa | 0 mm | - | 12 W/m² | - |
| 1788350736 | 16.67° C | 96% | 1013 hPa | 0 mm | - | 7 W/m² | - |
| 1788350432 | 16.67° C | 96% | 1013 hPa | 0 mm | - | 4 W/m² | - |
| 1788350132 | 16.67° C | 96% | 1013 hPa | 0 mm | - | 3 W/m² | - |
| 1788349829 | 16.67° C | 96% | 1012.7 hPa | 0 mm | - | 1 W/m² | - |
| 1788349525 | 16.67° C | 96% | 1013 hPa | 0 mm | - | 0 W/m² | - |
| 1788349224 | 16.67° C | 96% | 1012.7 hPa | 0 mm | - | 0 W/m² | - |
| 1788348920 | 16.67° C | 95% | 1012.7 hPa | 0 mm | - | 0 W/m² | - |
| 1788348615 | 16.67° C | 95% | 1012.7 hPa | 0 mm | - | 0 W/m² | - |
| 1788348310 | 16.67° C | 95% | 1012.3 hPa | 0 mm | - | 0 W/m² | - |
| 1788348007 | 16.67° C | 95% | 1012.3 hPa | 0 mm | - | 0 W/m² | - |
| 1788347703 | 16.67° C | 95% | 1012.3 hPa | 0 mm | - | 0 W/m² | - |
| 1788347398 | 16.67° C | 95% | 1012.7 hPa | 0 mm | - | 0 W/m² | - |
| 1788347094 | 16.67° C | 95% | 1012.3 hPa | 0 mm | - | 0 W/m² | - |
| 1788346789 | 16.67° C | 95% | 1012.3 hPa | 0 mm | - | 0 W/m² | - |
| 1788346485 | 16.67° C | 94% | 1012.3 hPa | 0 mm | - | 0 W/m² | - |
| 1788346184 | 17.22° C | 94% | 1012.7 hPa | 0 mm | - | 0 W/m² | - |
| 1788345881 | 17.22° C | 94% | 1012 hPa | 0 mm | - | 0 W/m² | - |
| 1788345580 | 17.22° C | 94% | 1012.3 hPa | 0 mm | - | 0 W/m² | - |
| 1788345276 | 17.22° C | 94% | 1012.7 hPa | 0 mm | - | 0 W/m² | - |
* Rain latest hour (hover to see other rain measurements)
** Current wind speed in m/s (hover to see current wind gust speed)